Time,TemperatureF,DewpointF,PressureIn,WindDirection,WindDirectionDegrees,WindSpeedMPH,WindSpeedGustMPH,Humidity,HourlyPrecipIn,Conditions,Clouds,dailyrainin,SoftwareType,DateUTC
2013-03-02 00:02:00,50.7,25.4,30.21,NW,315,0.0,0.0,37,0.00,,---,0.00,VWS V14.01,2013-03-02 07:02:00,
2013-03-02 00:07:00,50.9,25.6,30.21,NNW,338,0.0,0.0,37,0.00,,---,0.00,VWS V14.01,2013-03-02 07:07:00,
2013-03-02 00:12:00,51.1,25.7,30.21,NW,315,0.0,0.0,37,0.00,,---,0.00,VWS V14.01,2013-03-02 07:12:00,
2013-03-02 00:17:00,51.6,25.6,30.21,WNW,292,0.0,0.0,36,0.00,,---,0.00,VWS V14.01,2013-03-02 07:17:00,
2013-03-02 00:22:00,51.8,25.7,30.21,NW,315,0.0,0.0,36,0.00,,---,0.00,VWS V14.01,2013-03-02 07:22:00,
2013-03-02 00:27:00,51.8,25.7,30.21,NE,45,0.0,0.0,36,0.00,,---,0.00,VWS V14.01,2013-03-02 07:27:00,
2013-03-02 00:32:00,51.3,25.2,30.21,ENE,68,0.0,0.0,36,0.00,,---,0.00,VWS V14.01,2013-03-02 07:32:00,
2013-03-02 00:37:00,50.7,24.8,30.21,ESE,112,0.0,0.0,36,0.00,,---,0.00,VWS V14.01,2013-03-02 07:37:00,
2013-03-02 00:43:00,50.7,24.8,30.21,ESE,112,0.0,0.0,36,0.00,,---,0.00,VWS V14.01,2013-03-02 07:43:00,
2013-03-02 00:48:00,49.8,24.0,30.21,East,90,0.0,0.0,36,0.00,,---,0.00,VWS V14.01,2013-03-02 07:48:00,
2013-03-02 00:53:00,49.8,24.6,30.21,NNW,338,0.0,0.0,37,0.00,,---,0.00,VWS V14.01,2013-03-02 07:53:00,
2013-03-02 00:58:00,50.4,24.4,30.21,NNE,22,0.0,0.0,36,0.00,,---,0.00,VWS V14.01,2013-03-02 07:58:00,
2013-03-02 01:03:00,50.4,24.4,30.21,NNW,338,0.0,0.0,36,0.00,,---,0.00,VWS V14.01,2013-03-02 08:03:00,
2013-03-02 01:08:00,50.2,24.3,30.21,NNW,338,0.0,0.0,36,0.00,,---,0.00,VWS V14.01,2013-03-02 08:08:00,
2013-03-02 01:13:00,50.0,24.1,30.21,NNW,338,0.0,0.0,36,0.00,,---,0.00,VWS V14.01,2013-03-02 08:13:00,
2013-03-02 01:18:00,50.0,24.1,30.21,NW,315,0.0,0.0,36,0.00,,---,0.00,VWS V14.01,2013-03-02 08:18:00,
2013-03-02 01:23:00,49.6,24.5,30.21,South,180,0.0,0.0,37,0.00,,---,0.00,VWS V14.01,2013-03-02 08:23:00,
2013-03-02 01:28:00,49.3,24.1,30.21,WSW,248,0.0,0.0,37,0.00,,---,0.00,VWS V14.01,2013-03-02 08:28:00,
2013-03-02 01:34:00,48.7,23.6,30.21,South,180,0.0,0.0,37,0.00,,---,0.00,VWS V14.01,2013-03-02 08:34:00,
2013-03-02 01:39:00,48.4,23.3,30.21,South,180,0.0,0.0,37,0.00,,---,0.00,VWS V14.01,2013-03-02 08:39:00,
2013-03-02 01:44:00,48.0,23.0,30.21,South,180,0.0,0.0,37,0.00,,---,0.00,VWS V14.01,2013-03-02 08:44:00,
2013-03-02 01:49:00,47.5,23.2,30.21,ENE,68,0.0,0.0,38,0.00,,---,0.00,VWS V14.01,2013-03-02 08:49:00,
2013-03-02 01:54:00,47.3,23.0,30.21,NE,45,0.0,0.0,38,0.00,,---,0.00,VWS V14.01,2013-03-02 08:54:00,
2013-03-02 01:59:00,47.1,22.8,30.24,NNW,338,0.0,0.0,38,0.00,,---,0.00,VWS V14.01,2013-03-02 08:59:00,
2013-03-02 02:04:00,47.3,23.6,30.24,NNE,22,0.0,0.0,39,0.00,,---,0.00,VWS V14.01,2013-03-02 09:04:00,
2013-03-02 02:09:00,47.3,23.6,30.24,NNW,338,0.0,0.0,39,0.00,,---,0.00,VWS V14.01,2013-03-02 09:09:00,
2013-03-02 02:14:00,47.1,23.5,30.21,NW,315,0.0,0.0,39,0.00,,---,0.00,VWS V14.01,2013-03-02 09:14:00,
2013-03-02 02:19:00,46.9,23.3,30.21,NNW,338,0.0,0.0,39,0.00,,---,0.00,VWS V14.01,2013-03-02 09:19:00,
2013-03-02 02:24:00,47.3,23.6,30.21,North,0,0.0,0.0,39,0.00,,---,0.00,VWS V14.01,2013-03-02 09:24:00,
2013-03-02 02:29:00,47.7,23.9,30.24,North,0,0.0,0.0,39,0.00,,---,0.00,VWS V14.01,2013-03-02 09:29:00,
2013-03-02 02:34:00,47.1,23.5,30.24,East,90,0.0,0.0,39,0.00,,---,0.00,VWS V14.01,2013-03-02 09:34:00,
2013-03-02 02:39:00,46.6,23.0,30.24,East,90,0.0,0.0,39,0.00,,---,0.00,VWS V14.01,2013-03-02 09:39:00,
2013-03-02 02:44:00,46.2,23.2,30.21,NNE,22,0.0,0.0,40,0.00,,---,0.00,VWS V14.01,2013-03-02 09:44:00,
2013-03-02 02:50:00,46.4,23.4,30.21,North,0,0.0,0.0,40,0.00,,---,0.00,VWS V14.01,2013-03-02 09:50:00,
2013-03-02 02:55:00,46.9,23.9,30.21,NNW,338,0.0,0.0,40,0.00,,---,0.00,VWS V14.01,2013-03-02 09:55:00,
2013-03-02 03:00:00,47.1,24.1,30.21,NW,315,0.0,0.0,40,0.00,,---,0.00,VWS V14.01,2013-03-02 10:00:00,
2013-03-02 03:05:00,47.3,23.6,30.21,ENE,68,0.0,0.0,39,0.00,,---,0.00,VWS V14.01,2013-03-02 10:05:00,
2013-03-02 03:10:00,46.8,23.1,30.21,ENE,68,0.0,0.0,39,0.00,,---,0.00,VWS V14.01,2013-03-02 10:10:00,
2013-03-02 03:16:00,46.6,23.0,30.21,North,0,0.0,0.0,39,0.00,,---,0.00,VWS V14.01,2013-03-02 10:16:00,
2013-03-02 03:21:00,46.6,23.0,30.21,NNE,22,0.0,0.0,39,0.00,,---,0.00,VWS V14.01,2013-03-02 10:21:00,
2013-03-02 03:26:00,46.6,23.0,30.21,North,0,0.0,0.0,39,0.00,,---,0.00,VWS V14.01,2013-03-02 10:26:00,
2013-03-02 03:31:00,46.4,22.8,30.21,ENE,68,0.0,0.0,39,0.00,,---,0.00,VWS V14.01,2013-03-02 10:31:00,
2013-03-02 03:36:00,46.2,23.2,30.21,ENE,68,0.0,0.0,40,0.00,,---,0.00,VWS V14.01,2013-03-02 10:36:00,
2013-03-02 03:41:00,46.0,22.5,30.21,NNW,338,0.0,0.0,39,0.00,,---,0.00,VWS V14.01,2013-03-02 10:41:00,
2013-03-02 03:46:00,46.0,23.1,30.21,North,0,0.0,0.0,40,0.00,,---,0.00,VWS V14.01,2013-03-02 10:46:00,
2013-03-02 03:51:00,46.0,23.1,30.21,NNW,338,0.0,0.0,40,0.00,,---,0.00,VWS V14.01,2013-03-02 10:51:00,
2013-03-02 03:56:00,46.2,23.2,30.21,NNW,338,0.0,0.0,40,0.00,,---,0.00,VWS V14.01,2013-03-02 10:56:00,
2013-03-02 04:01:00,46.4,23.4,30.21,NNW,338,0.0,0.0,40,0.00,,---,0.00,VWS V14.01,2013-03-02 11:01:00,
2013-03-02 04:06:00,46.4,22.8,30.21,NNW,338,0.0,0.0,39,0.00,,---,0.00,VWS V14.01,2013-03-02 11:06:00,
2013-03-02 04:11:00,46.6,23.0,30.21,NW,315,0.0,0.0,39,0.00,,---,0.00,VWS V14.01,2013-03-02 11:11:00,
2013-03-02 04:17:00,46.9,23.3,30.21,NNW,338,0.0,0.0,39,0.00,,---,0.00,VWS V14.01,2013-03-02 11:17:00,
2013-03-02 04:22:00,47.1,23.5,30.21,NNW,338,0.0,0.0,39,0.00,,---,0.00,VWS V14.01,2013-03-02 11:22:00,
2013-03-02 04:27:00,46.6,23.0,30.21,SSW,202,0.0,0.0,39,0.00,,---,0.00,VWS V14.01,2013-03-02 11:27:00,
2013-03-02 04:32:00,45.9,22.3,30.21,South,180,0.0,0.0,39,0.00,,---,0.00,VWS V14.01,2013-03-02 11:32:00,
2013-03-02 04:37:00,45.1,21.7,30.21,South,180,0.0,0.0,39,0.00,,---,0.00,VWS V14.01,2013-03-02 11:37:00,
2013-03-02 04:42:00,44.6,21.2,30.24,South,180,0.0,0.0,39,0.00,,---,0.00,VWS V14.01,2013-03-02 11:42:00,
2013-03-02 04:47:00,44.1,21.3,30.24,NW,315,0.0,0.0,40,0.00,,---,0.00,VWS V14.01,2013-03-02 11:47:00,
2013-03-02 04:52:00,44.8,22.0,30.24,North,0,0.0,0.0,40,0.00,,---,0.00,VWS V14.01,2013-03-02 11:52:00,
2013-03-02 04:57:00,45.3,22.4,30.24,NNW,338,0.0,0.0,40,0.00,,---,0.00,VWS V14.01,2013-03-02 11:57:00,
2013-03-02 05:02:00,46.0,23.1,30.24,North,0,0.0,0.0,40,0.00,,---,0.00,VWS V14.01,2013-03-02 12:02:00,
2013-03-02 05:07:00,46.4,22.8,30.24,North,0,0.0,0.0,39,0.00,,---,0.00,VWS V14.01,2013-03-02 12:07:00,
2013-03-02 05:12:00,46.6,23.0,30.24,NNW,338,0.0,0.0,39,0.00,,---,0.00,VWS V14.01,2013-03-02 12:12:00,
2013-03-02 05:18:00,46.6,23.6,30.24,NNW,338,0.0,0.0,40,0.00,,---,0.00,VWS V14.01,2013-03-02 12:18:00,
2013-03-02 05:23:00,46.6,23.0,30.24,NNE,22,0.0,0.0,39,0.00,,---,0.00,VWS V14.01,2013-03-02 12:23:00,
2013-03-02 05:28:00,46.9,23.3,30.24,NNW,338,0.0,0.0,39,0.00,,---,0.00,VWS V14.01,2013-03-02 12:28:00,
2013-03-02 05:33:00,47.3,23.6,30.24,North,0,0.0,0.0,39,0.00,,---,0.00,VWS V14.01,2013-03-02 12:33:00,
2013-03-02 05:38:00,47.5,23.8,30.24,NNW,338,0.0,0.0,39,0.00,,---,0.00,VWS V14.01,2013-03-02 12:38:00,
2013-03-02 05:43:00,47.3,23.6,30.24,NW,315,0.0,0.0,39,0.00,,---,0.00,VWS V14.01,2013-03-02 12:43:00,
2013-03-02 05:48:00,47.3,23.0,30.24,NNW,338,0.0,0.0,38,0.00,,---,0.00,VWS V14.01,2013-03-02 12:48:00,
2013-03-02 05:53:00,46.9,22.7,30.24,NNE,22,0.0,0.0,38,0.00,,---,0.00,VWS V14.01,2013-03-02 12:53:00,
2013-03-02 05:58:00,47.3,23.0,30.24,ENE,68,0.0,0.0,38,0.00,,---,0.00,VWS V14.01,2013-03-02 12:58:00,
2013-03-02 06:03:00,46.9,22.7,30.24,NNE,22,0.0,0.0,38,0.00,,---,0.00,VWS V14.01,2013-03-02 13:03:00,
2013-03-02 06:08:00,46.8,23.1,30.24,NNW,338,0.0,0.0,39,0.00,,---,0.00,VWS V14.01,2013-03-02 13:08:00,
2013-03-02 06:13:00,46.4,22.8,30.24,NNW,338,0.0,0.0,39,0.00,,---,0.00,VWS V14.01,2013-03-02 13:13:00,
2013-03-02 06:18:00,46.2,22.6,30.24,NNW,338,0.0,0.0,39,0.00,,---,0.00,VWS V14.01,2013-03-02 13:18:00,
2013-03-02 06:23:00,46.2,22.6,30.24,NNE,22,0.0,0.0,39,0.00,,---,0.00,VWS V14.01,2013-03-02 13:23:00,
2013-03-02 06:28:00,46.8,23.1,30.24,NNW,338,0.0,0.0,39,0.00,,---,0.00,VWS V14.01,2013-03-02 13:28:00,
2013-03-02 06:33:00,46.9,23.3,30.24,North,0,0.0,0.0,39,0.00,,---,0.00,VWS V14.01,2013-03-02 13:33:00,
2013-03-02 06:39:00,46.8,22.5,30.24,NW,315,0.0,0.0,38,0.00,,---,0.00,VWS V14.01,2013-03-02 13:39:00,
2013-03-02 06:44:00,46.2,22.6,30.24,East,90,0.0,0.0,39,0.00,,---,0.00,VWS V14.01,2013-03-02 13:44:00,
2013-03-02 06:49:00,45.7,22.2,30.24,East,90,0.0,0.0,39,0.00,,---,0.00,VWS V14.01,2013-03-02 13:49:00,
2013-03-02 06:54:00,45.3,21.8,30.24,East,90,0.0,0.0,39,0.00,,---,0.00,VWS V14.01,2013-03-02 13:54:00,
2013-03-02 06:59:00,44.8,21.4,30.24,East,90,0.0,0.0,39,0.00,,---,0.00,VWS V14.01,2013-03-02 13:59:00,
2013-03-02 07:04:00,44.2,21.5,30.24,SE,135,0.0,0.0,40,0.00,,---,0.00,VWS V14.01,2013-03-02 14:04:00,
2013-03-02 07:09:00,43.7,21.0,30.24,SE,135,0.0,0.0,40,0.00,,---,0.00,VWS V14.01,2013-03-02 14:09:00,
2013-03-02 07:14:00,43.3,20.6,30.27,SE,135,0.0,0.0,40,0.00,,---,0.00,VWS V14.01,2013-03-02 14:14:00,
2013-03-02 07:19:00,43.0,20.9,30.27,North,0,0.0,0.0,41,0.00,,---,0.00,VWS V14.01,2013-03-02 14:19:00,
2013-03-02 07:24:00,43.2,22.2,30.27,ENE,68,0.0,0.0,43,0.00,,---,0.00,VWS V14.01,2013-03-02 14:24:00,
2013-03-02 07:29:00,44.1,24.1,30.27,ENE,68,0.0,0.0,45,0.00,,---,0.00,VWS V14.01,2013-03-02 14:29:00,
2013-03-02 07:34:00,44.4,24.4,30.27,North,0,0.0,0.0,45,0.00,,---,0.00,VWS V14.01,2013-03-02 14:34:00,
2013-03-02 07:39:00,45.3,24.7,30.27,ENE,68,0.0,0.0,44,0.00,,---,0.00,VWS V14.01,2013-03-02 14:39:00,
2013-03-02 07:44:00,46.4,25.1,30.27,East,90,2.9,2.9,43,0.00,,---,0.00,VWS V14.01,2013-03-02 14:44:00,
2013-03-02 07:49:00,47.7,25.7,30.27,ENE,68,1.1,1.1,42,0.00,,---,0.00,VWS V14.01,2013-03-02 14:49:00,
2013-03-02 07:54:00,48.7,26.1,30.27,NNE,22,0.0,0.0,41,0.00,,---,0.00,VWS V14.01,2013-03-02 14:54:00,
2013-03-02 08:00:00,49.5,26.2,30.27,East,90,0.0,0.0,40,0.00,,---,0.00,VWS V14.01,2013-03-02 15:00:00,
2013-03-02 08:05:00,50.2,26.8,30.27,East,90,0.0,0.0,40,0.00,,---,0.00,VWS V14.01,2013-03-02 15:05:00,
2013-03-02 08:10:00,50.9,27.5,30.27,NNE,22,0.0,0.0,40,0.00,,---,0.00,VWS V14.01,2013-03-02 15:10:00,
2013-03-02 08:15:00,51.8,27.6,30.24,NNW,338,0.0,0.0,39,0.00,,---,0.00,VWS V14.01,2013-03-02 15:15:00,
2013-03-02 08:20:00,53.1,28.1,30.24,NNE,22,0.0,0.0,38,0.00,,---,0.00,VWS V14.01,2013-03-02 15:20:00,
2013-03-02 08:25:00,54.1,28.5,30.24,NNW,338,0.0,0.0,37,0.00,,---,0.00,VWS V14.01,2013-03-02 15:25:00,
2013-03-02 08:30:00,55.2,29.4,30.24,NNE,22,0.0,0.0,37,0.00,,---,0.00,VWS V14.01,2013-03-02 15:30:00,
2013-03-02 08:35:00,56.5,30.5,30.24,East,90,0.0,0.0,37,0.00,,---,0.00,VWS V14.01,2013-03-02 15:35:00,
2013-03-02 08:40:00,57.2,30.5,30.24,ESE,112,0.0,0.0,36,0.00,,---,0.00,VWS V14.01,2013-03-02 15:40:00,
2013-03-02 08:45:00,57.9,31.1,30.24,SE,135,0.0,0.0,36,0.00,,---,0.00,VWS V14.01,2013-03-02 15:45:00,
2013-03-02 08:50:00,58.6,31.8,30.24,SE,135,0.0,0.0,36,0.00,,---,0.00,VWS V14.01,2013-03-02 15:50:00,
2013-03-02 08:55:00,59.4,32.4,30.24,SE,135,0.0,0.0,36,0.00,,---,0.00,VWS V14.01,2013-03-02 15:55:00,
2013-03-02 09:00:00,60.1,33.1,30.27,East,90,0.0,0.0,36,0.00,,---,0.00,VWS V14.01,2013-03-02 16:00:00,
2013-03-02 09:05:00,60.8,33.0,30.27,East,90,0.0,0.0,35,0.00,,---,0.00,VWS V14.01,2013-03-02 16:05:00,
2013-03-02 09:10:00,61.5,32.9,30.24,East,90,0.0,0.0,34,0.00,,---,0.00,VWS V14.01,2013-03-02 16:10:00,
2013-03-02 09:16:00,62.4,33.7,30.24,ENE,68,2.0,2.0,34,0.00,,---,0.00,VWS V14.01,2013-03-02 16:16:00,
2013-03-02 09:21:00,63.0,34.2,30.24,ESE,112,1.6,1.6,34,0.00,,---,0.00,VWS V14.01,2013-03-02 16:21:00,
2013-03-02 09:26:00,64.0,35.1,30.24,ESE,112,0.0,1.6,34,0.00,,---,0.00,VWS V14.01,2013-03-02 16:26:00,
2013-03-02 09:31:00,64.6,34.8,30.24,ESE,112,0.0,0.0,33,0.00,,---,0.00,VWS V14.01,2013-03-02 16:31:00,
2013-03-02 09:36:00,65.5,35.6,30.24,SE,135,0.0,0.0,33,0.00,,---,0.00,VWS V14.01,2013-03-02 16:36:00,
2013-03-02 09:41:00,66.2,35.5,30.24,ESE,112,0.9,0.9,32,0.00,,---,0.00,VWS V14.01,2013-03-02 16:41:00,
2013-03-02 09:46:00,66.9,35.3,30.24,ESE,112,0.0,0.9,31,0.00,,---,0.00,VWS V14.01,2013-03-02 16:46:00,
2013-03-02 09:51:00,67.6,36.0,30.24,SE,135,0.0,0.0,31,0.00,,---,0.00,VWS V14.01,2013-03-02 16:51:00,
2013-03-02 09:56:00,68.2,35.6,30.24,East,90,0.0,0.0,30,0.00,,---,0.00,VWS V14.01,2013-03-02 16:56:00,
2013-03-02 10:01:00,69.1,35.5,30.24,East,90,0.0,0.0,29,0.00,,---,0.00,VWS V14.01,2013-03-02 17:01:00,
2013-03-02 10:06:00,69.6,36.0,30.24,SE,135,0.0,0.0,29,0.00,,---,0.00,VWS V14.01,2013-03-02 17:06:00,
2013-03-02 10:12:00,70.3,35.7,30.24,ESE,112,0.9,0.9,28,0.00,,---,0.00,VWS V14.01,2013-03-02 17:12:00,
2013-03-02 10:17:00,70.7,35.1,30.24,ESE,112,0.0,0.0,27,0.00,,---,0.00,VWS V14.01,2013-03-02 17:17:00,
2013-03-02 10:22:00,71.2,35.6,30.24,SSE,158,0.0,0.0,27,0.00,,---,0.00,VWS V14.01,2013-03-02 17:22:00,
2013-03-02 10:27:00,71.6,34.9,30.24,SE,135,0.0,0.0,26,0.00,,---,0.00,VWS V14.01,2013-03-02 17:27:00,
2013-03-02 10:32:00,72.1,34.4,30.24,ESE,112,1.6,1.6,25,0.00,,---,0.00,VWS V14.01,2013-03-02 17:32:00,
2013-03-02 10:37:00,72.5,35.7,30.24,SE,135,2.2,2.9,26,0.00,,---,0.00,VWS V14.01,2013-03-02 17:37:00,
2013-03-02 10:42:00,73.2,35.3,30.21,SE,135,0.0,1.1,25,0.00,,---,0.00,VWS V14.01,2013-03-02 17:42:00,
2013-03-02 10:47:00,73.2,35.3,30.21,SSE,158,0.0,0.0,25,0.00,,---,0.00,VWS V14.01,2013-03-02 17:47:00,
2013-03-02 10:52:00,73.8,34.8,30.21,SE,135,2.7,2.7,24,0.00,,---,0.00,VWS V14.01,2013-03-02 17:52:00,
2013-03-02 10:57:00,73.8,34.8,30.21,East,90,0.0,0.0,24,0.00,,---,0.00,VWS V14.01,2013-03-02 17:57:00,
2013-03-02 11:02:00,74.1,35.1,30.21,South,180,0.0,0.0,24,0.00,,---,0.00,VWS V14.01,2013-03-02 18:02:00,
2013-03-02 11:07:00,74.3,35.2,30.21,North,0,0.0,0.0,24,0.00,,---,0.00,VWS V14.01,2013-03-02 18:07:00,
2013-03-02 11:12:00,74.5,34.3,30.21,East,90,0.0,0.0,23,0.00,,---,0.00,VWS V14.01,2013-03-02 18:12:00,
2013-03-02 11:17:00,75.2,34.9,30.21,South,180,0.0,0.0,23,0.00,,---,0.00,VWS V14.01,2013-03-02 18:17:00,
2013-03-02 11:23:00,75.2,34.9,30.21,ESE,112,0.0,0.0,23,0.00,,---,0.00,VWS V14.01,2013-03-02 18:23:00,
2013-03-02 11:28:00,75.9,34.4,30.21,SE,135,2.5,2.5,22,0.00,,---,0.00,VWS V14.01,2013-03-02 18:28:00,
2013-03-02 11:33:00,75.9,34.4,30.21,South,180,0.0,0.0,22,0.00,,---,0.00,VWS V14.01,2013-03-02 18:33:00,
2013-03-02 11:38:00,76.3,34.7,30.21,SW,225,0.0,0.0,22,0.00,,---,0.00,VWS V14.01,2013-03-02 18:38:00,
2013-03-02 11:43:00,76.5,34.8,30.21,SSW,202,0.0,0.0,22,0.00,,---,0.00,VWS V14.01,2013-03-02 18:43:00,
2013-03-02 11:48:00,76.6,35.0,30.21,South,180,0.0,0.0,22,0.00,,---,0.00,VWS V14.01,2013-03-02 18:48:00,
2013-03-02 11:53:00,77.0,35.3,30.21,SW,225,0.0,0.0,22,0.00,,---,0.00,VWS V14.01,2013-03-02 18:53:00,
2013-03-02 11:58:00,77.4,34.4,30.21,SSE,158,0.0,0.0,21,0.00,,---,0.00,VWS V14.01,2013-03-02 18:58:00,
2013-03-02 12:03:00,77.7,34.7,30.21,NNW,338,0.0,0.0,21,0.00,,---,0.00,VWS V14.01,2013-03-02 19:03:00,
2013-03-02 12:08:00,77.2,34.3,30.21,East,90,0.0,0.0,21,0.00,,---,0.00,VWS V14.01,2013-03-02 19:08:00,
2013-03-02 12:13:00,77.9,34.9,30.18,SE,135,0.0,0.0,21,0.00,,---,0.00,VWS V14.01,2013-03-02 19:13:00,
2013-03-02 12:18:00,78.3,35.2,30.18,WSW,248,0.0,0.0,21,0.00,,---,0.00,VWS V14.01,2013-03-02 19:18:00,
2013-03-02 12:23:00,78.4,35.3,30.18,SW,225,0.0,0.0,21,0.00,,---,0.00,VWS V14.01,2013-03-02 19:23:00,
2013-03-02 12:28:00,78.6,35.5,30.18,SW,225,0.0,0.0,21,0.00,,---,0.00,VWS V14.01,2013-03-02 19:28:00,
2013-03-02 12:33:00,78.3,35.2,30.18,SW,225,0.0,0.0,21,0.00,,---,0.00,VWS V14.01,2013-03-02 19:33:00,
2013-03-02 12:38:00,78.4,35.3,30.18,East,90,0.0,0.0,21,0.00,,---,0.00,VWS V14.01,2013-03-02 19:38:00,
2013-03-02 12:44:00,79.0,34.5,30.18,SSE,158,0.0,0.0,20,0.00,,---,0.00,VWS V14.01,2013-03-02 19:44:00,
2013-03-02 12:49:00,79.3,34.8,30.18,SE,135,0.0,0.0,20,0.00,,---,0.00,VWS V14.01,2013-03-02 19:49:00,
2013-03-02 12:54:00,79.7,35.1,30.18,WNW,292,0.0,0.0,20,0.00,,---,0.00,VWS V14.01,2013-03-02 19:54:00,
2013-03-02 12:59:00,79.9,35.3,30.15,SE,135,0.0,0.0,20,0.00,,---,0.00,VWS V14.01,2013-03-02 19:59:00,
2013-03-02 13:04:00,80.4,35.7,30.15,SSE,158,0.0,0.0,20,0.00,,---,0.00,VWS V14.01,2013-03-02 20:04:00,
2013-03-02 13:09:00,80.8,36.0,30.15,East,90,0.0,0.0,20,0.00,,---,0.00,VWS V14.01,2013-03-02 20:09:00,
2013-03-02 13:14:00,81.3,36.5,30.15,ESE,112,1.3,1.3,20,0.00,,---,0.00,VWS V14.01,2013-03-02 20:14:00,
2013-03-02 13:19:00,81.5,36.6,30.15,SE,135,0.0,0.0,20,0.00,,---,0.00,VWS V14.01,2013-03-02 20:19:00,
2013-03-02 13:24:00,81.5,36.6,30.15,SW,225,0.0,0.0,20,0.00,,---,0.00,VWS V14.01,2013-03-02 20:24:00,
2013-03-02 13:29:00,81.7,36.8,30.15,SW,225,0.0,0.0,20,0.00,,---,0.00,VWS V14.01,2013-03-02 20:29:00,
2013-03-02 13:34:00,81.5,36.6,30.15,South,180,0.0,0.0,20,0.00,,---,0.00,VWS V14.01,2013-03-02 20:34:00,
2013-03-02 13:39:00,81.9,36.9,30.15,SW,225,0.0,2.7,20,0.00,,---,0.00,VWS V14.01,2013-03-02 20:39:00,
2013-03-02 13:44:00,81.9,36.9,30.15,South,180,0.0,0.0,20,0.00,,---,0.00,VWS V14.01,2013-03-02 20:44:00,
2013-03-02 13:49:00,81.9,36.9,30.15,SE,135,0.0,1.1,20,0.00,,---,0.00,VWS V14.01,2013-03-02 20:49:00,
2013-03-02 13:54:00,82.0,37.0,30.15,West,270,0.0,0.0,20,0.00,,---,0.00,VWS V14.01,2013-03-02 20:54:00,
2013-03-02 13:59:00,82.6,36.2,30.15,SE,135,0.0,0.0,19,0.00,,---,0.00,VWS V14.01,2013-03-02 20:59:00,
2013-03-02 14:04:00,82.4,36.0,30.15,WSW,248,0.0,0.0,19,0.00,,---,0.00,VWS V14.01,2013-03-02 21:04:00,
2013-03-02 15:24:00,82.0,35.8,30.12,West,270,0.0,0.0,19,0.00,,---,0.00,VWS V14.01,2013-03-02 22:24:00,
2013-03-02 15:29:00,82.4,36.0,30.09,SSW,202,0.0,0.0,19,0.00,,---,0.00,VWS V14.01,2013-03-02 22:29:00,
2013-03-02 15:34:00,82.9,36.5,30.09,WSW,248,0.0,0.0,19,0.00,,---,0.00,VWS V14.01,2013-03-02 22:34:00,
2013-03-02 15:39:00,82.9,36.5,30.09,SE,135,0.0,0.0,19,0.00,,---,0.00,VWS V14.01,2013-03-02 22:39:00,
2013-03-02 15:44:00,82.9,36.5,30.09,SE,135,0.0,0.0,19,0.00,,---,0.00,VWS V14.01,2013-03-02 22:44:00,
2013-03-02 15:49:00,83.1,36.6,30.09,SE,135,0.0,0.0,19,0.00,,---,0.00,VWS V14.01,2013-03-02 22:49:00,
2013-03-02 15:54:00,83.1,36.6,30.09,SE,135,0.0,0.0,19,0.00,,---,0.00,VWS V14.01,2013-03-02 22:54:00,
2013-03-02 16:00:00,82.8,36.3,30.09,West,270,0.0,0.0,19,0.00,,---,0.00,VWS V14.01,2013-03-02 23:00:00,
2013-03-02 16:05:00,82.2,35.9,30.09,NNW,338,0.0,0.0,19,0.00,,---,0.00,VWS V14.01,2013-03-02 23:05:00,
2013-03-02 16:10:00,81.7,35.5,30.09,SW,225,0.0,0.0,19,0.00,,---,0.00,VWS V14.01,2013-03-02 23:10:00,
2013-03-02 16:15:00,82.6,36.2,30.09,West,270,0.0,0.0,19,0.00,,---,0.00,VWS V14.01,2013-03-02 23:15:00,
2013-03-02 16:20:00,82.2,37.2,30.09,SW,225,5.8,5.8,20,0.00,,---,0.00,VWS V14.01,2013-03-02 23:20:00,
2013-03-02 16:25:00,82.6,36.2,30.09,South,180,0.0,2.5,19,0.00,,---,0.00,VWS V14.01,2013-03-02 23:25:00,
2013-03-02 16:30:00,82.8,36.3,30.09,South,180,0.0,0.0,19,0.00,,---,0.00,VWS V14.01,2013-03-02 23:30:00,
2013-03-02 16:35:00,82.8,36.3,30.09,WSW,248,0.0,0.0,19,0.00,,---,0.00,VWS V14.01,2013-03-02 23:35:00,
2013-03-02 16:40:00,82.6,36.2,30.09,SW,225,1.1,1.1,19,0.00,,---,0.00,VWS V14.01,2013-03-02 23:40:00,
2013-03-02 16:45:00,82.6,36.2,30.09,SW,225,0.0,0.0,19,0.00,,---,0.00,VWS V14.01,2013-03-02 23:45:00,
2013-03-02 16:50:00,82.8,36.3,30.09,SW,225,1.6,1.6,19,0.00,,---,0.00,VWS V14.01,2013-03-02 23:50:00,
2013-03-02 16:55:00,82.8,36.3,30.09,SW,225,2.5,2.5,19,0.00,,---,0.00,VWS V14.01,2013-03-02 23:55:00,
2013-03-02 17:00:00,82.4,36.0,30.06,SSW,202,0.0,0.0,19,0.00,,---,0.00,VWS V14.01,2013-03-03 00:00:00,
2013-03-02 17:05:00,82.0,37.0,30.06,South,180,0.0,0.0,20,0.00,,---,0.00,VWS V14.01,2013-03-03 00:05:00,
2013-03-02 17:11:00,81.1,36.3,30.06,SW,225,0.0,0.0,20,0.00,,---,0.00,VWS V14.01,2013-03-03 00:11:00,
2013-03-02 17:16:00,80.6,35.9,30.06,SW,225,0.0,2.0,20,0.00,,---,0.00,VWS V14.01,2013-03-03 00:16:00,
2013-03-02 17:21:00,79.9,35.3,30.06,WSW,248,0.0,0.0,20,0.00,,---,0.00,VWS V14.01,2013-03-03 00:21:00,
2013-03-02 17:26:00,79.3,34.8,30.06,SW,225,2.9,2.9,20,0.00,,---,0.00,VWS V14.01,2013-03-03 00:26:00,
2013-03-02 17:31:00,78.8,34.4,30.06,WSW,248,0.0,0.0,20,0.00,,---,0.00,VWS V14.01,2013-03-03 00:31:00,
2013-03-02 17:36:00,78.1,33.8,30.06,SW,225,2.9,2.9,20,0.00,,---,0.00,VWS V14.01,2013-03-03 00:36:00,
2013-03-02 17:41:00,77.5,33.3,30.06,SW,225,0.0,0.0,20,0.00,,---,0.00,VWS V14.01,2013-03-03 00:41:00,
2013-03-02 17:46:00,77.0,32.9,30.06,WSW,248,0.0,2.0,20,0.00,,---,0.00,VWS V14.01,2013-03-03 00:46:00,
2013-03-02 17:51:00,76.3,33.5,30.06,WSW,248,0.0,0.0,21,0.00,,---,0.00,VWS V14.01,2013-03-03 00:51:00,
2013-03-02 17:56:00,75.7,33.1,30.06,WSW,248,0.0,0.0,21,0.00,,---,0.00,VWS V14.01,2013-03-03 00:56:00,
2013-03-02 18:01:00,75.0,32.5,30.06,WSW,248,0.0,0.0,21,0.00,,---,0.00,VWS V14.01,2013-03-03 01:01:00,
2013-03-02 18:06:00,74.3,31.9,30.06,SW,225,0.0,0.0,21,0.00,,---,0.00,VWS V14.01,2013-03-03 01:06:00,
2013-03-02 18:11:00,73.6,31.3,30.06,WSW,248,0.0,0.0,21,0.00,,---,0.00,VWS V14.01,2013-03-03 01:11:00,
2013-03-02 18:16:00,72.7,31.7,30.06,WSW,248,0.0,0.0,22,0.00,,---,0.00,VWS V14.01,2013-03-03 01:16:00,
2013-03-02 18:21:00,72.0,31.1,30.06,SW,225,0.0,0.0,22,0.00,,---,0.00,VWS V14.01,2013-03-03 01:21:00,
2013-03-02 18:27:00,71.2,30.5,30.06,West,270,0.0,0.0,22,0.00,,---,0.00,VWS V14.01,2013-03-03 01:27:00,
2013-03-02 18:32:00,70.3,29.7,30.06,NW,315,0.0,0.0,22,0.00,,---,0.00,VWS V14.01,2013-03-03 01:32:00,
2013-03-02 18:37:00,70.0,29.4,30.06,West,270,0.0,0.0,22,0.00,,---,0.00,VWS V14.01,2013-03-03 01:37:00,
2013-03-02 18:42:00,69.8,29.3,30.06,WNW,292,0.0,0.0,22,0.00,,---,0.00,VWS V14.01,2013-03-03 01:42:00,
2013-03-02 18:47:00,69.4,30.1,30.06,NW,315,0.0,0.0,23,0.00,,---,0.00,VWS V14.01,2013-03-03 01:47:00,
2013-03-02 18:52:00,69.1,29.8,30.06,NW,315,0.0,0.0,23,0.00,,---,0.00,VWS V14.01,2013-03-03 01:52:00,
2013-03-02 18:57:00,68.2,29.0,30.06,North,0,0.0,0.0,23,0.00,,---,0.00,VWS V14.01,2013-03-03 01:57:00,
2013-03-02 19:02:00,67.5,28.4,30.06,NE,45,0.0,0.0,23,0.00,,---,0.00,VWS V14.01,2013-03-03 02:02:00,
2013-03-02 19:07:00,67.1,28.1,30.06,NW,315,0.0,0.0,23,0.00,,---,0.00,VWS V14.01,2013-03-03 02:07:00,
2013-03-02 20:12:00,64.8,28.1,30.09,NNW,338,0.0,0.0,25,0.00,,---,0.00,VWS V14.01,2013-03-03 03:12:00,
2013-03-02 20:17:00,64.4,27.8,30.09,NE,45,0.0,0.0,25,0.00,,---,0.00,VWS V14.01,2013-03-03 03:17:00,
2013-03-02 20:22:00,63.9,28.3,30.09,NNE,22,0.0,0.0,26,0.00,,---,0.00,VWS V14.01,2013-03-03 03:22:00,
2013-03-02 20:28:00,63.9,28.3,30.09,NE,45,0.0,0.0,26,0.00,,---,0.00,VWS V14.01,2013-03-03 03:28:00,
2013-03-02 20:33:00,63.9,28.3,30.09,NNE,22,0.0,0.0,26,0.00,,---,0.00,VWS V14.01,2013-03-03 03:33:00,
2013-03-02 20:38:00,63.7,28.2,30.09,ENE,68,0.0,0.0,26,0.00,,---,0.00,VWS V14.01,2013-03-03 03:38:00,
2013-03-02 20:43:00,63.5,28.0,30.09,North,0,0.0,0.0,26,0.00,,---,0.00,VWS V14.01,2013-03-03 03:43:00,
2013-03-02 20:48:00,63.0,27.6,30.09,ENE,68,0.0,0.0,26,0.00,,---,0.00,VWS V14.01,2013-03-03 03:48:00,
2013-03-02 20:53:00,62.8,27.4,30.09,North,0,0.0,0.0,26,0.00,,---,0.00,VWS V14.01,2013-03-03 03:53:00,
2013-03-02 20:58:00,62.6,27.3,30.09,NE,45,1.6,1.6,26,0.00,,---,0.00,VWS V14.01,2013-03-03 03:58:00,
2013-03-02 21:03:00,62.6,28.2,30.09,East,90,0.0,0.0,27,0.00,,---,0.00,VWS V14.01,2013-03-03 04:03:00,
2013-03-02 21:09:00,62.6,28.2,30.09,ENE,68,0.0,0.0,27,0.00,,---,0.00,VWS V14.01,2013-03-03 04:09:00,
2013-03-02 21:14:00,62.4,28.0,30.09,NNE,22,0.0,0.0,27,0.00,,---,0.00,VWS V14.01,2013-03-03 04:14:00,
2013-03-02 21:19:00,62.2,27.9,30.09,WNW,292,0.0,0.0,27,0.00,,---,0.00,VWS V14.01,2013-03-03 04:19:00,
2013-03-02 21:24:00,62.2,27.9,30.09,NW,315,0.0,0.0,27,0.00,,---,0.00,VWS V14.01,2013-03-03 04:24:00,
2013-03-02 21:29:00,62.2,27.9,30.09,NNW,338,0.0,0.0,27,0.00,,---,0.00,VWS V14.01,2013-03-03 04:29:00,
2013-03-02 21:34:00,62.1,27.7,30.09,NNW,338,0.0,0.0,27,0.00,,---,0.00,VWS V14.01,2013-03-03 04:34:00,
2013-03-02 21:39:00,61.7,27.4,30.09,NNW,338,0.0,0.0,27,0.00,,---,0.00,VWS V14.01,2013-03-03 04:39:00,
2013-03-02 21:44:00,61.7,27.4,30.09,NW,315,0.0,0.0,27,0.00,,---,0.00,VWS V14.01,2013-03-03 04:44:00,
2013-03-02 21:49:00,61.3,27.1,30.09,NNW,338,0.0,0.0,27,0.00,,---,0.00,VWS V14.01,2013-03-03 04:49:00,
2013-03-02 21:54:00,61.0,26.8,30.09,NW,315,0.0,0.0,27,0.00,,---,0.00,VWS V14.01,2013-03-03 04:54:00,
2013-03-02 21:59:00,60.8,26.6,30.09,ENE,68,0.0,0.0,27,0.00,,---,0.00,VWS V14.01,2013-03-03 04:59:00,
2013-03-02 22:00:00,60.8,26.6,30.09,ENE,68,0.0,0.0,27,0.00,,---,0.00,VWS V14.01,2013-03-03 05:00:00,
2013-03-02 22:01:00,60.8,26.6,30.09,North,0,0.0,0.0,27,0.00,,---,0.00,VWS V14.01,2013-03-03 05:01:00,
2013-03-02 22:06:00,60.4,27.2,30.09,NE,45,0.0,0.0,28,0.00,,---,0.00,VWS V14.01,2013-03-03 05:06:00,
2013-03-02 22:11:00,60.1,26.9,30.09,ENE,68,0.0,0.0,28,0.00,,---,0.00,VWS V14.01,2013-03-03 05:11:00,
2013-03-02 22:16:00,59.9,26.7,30.09,North,0,0.0,0.0,28,0.00,,---,0.00,VWS V14.01,2013-03-03 05:16:00,
2013-03-02 22:21:00,59.7,26.6,30.09,North,0,0.0,0.0,28,0.00,,---,0.00,VWS V14.01,2013-03-03 05:21:00,
2013-03-02 22:26:00,59.4,26.3,30.09,North,0,0.0,0.0,28,0.00,,---,0.00,VWS V14.01,2013-03-03 05:26:00,
2013-03-02 22:31:00,58.8,26.6,30.09,North,0,0.0,0.0,29,0.00,,---,0.00,VWS V14.01,2013-03-03 05:31:00,
2013-03-02 22:36:00,58.8,27.5,30.09,NNW,338,0.0,0.0,30,0.00,,---,0.00,VWS V14.01,2013-03-03 05:36:00,
2013-03-02 22:41:00,58.8,27.5,30.09,North,0,0.0,0.0,30,0.00,,---,0.00,VWS V14.01,2013-03-03 05:41:00,
2013-03-02 22:47:00,58.8,27.5,30.09,NNW,338,0.0,0.0,30,0.00,,---,0.00,VWS V14.01,2013-03-03 05:47:00,
2013-03-02 22:52:00,58.6,27.3,30.09,NNW,338,0.0,0.0,30,0.00,,---,0.00,VWS V14.01,2013-03-03 05:52:00,
2013-03-02 22:57:00,58.6,27.3,30.09,NW,315,0.0,0.0,30,0.00,,---,0.00,VWS V14.01,2013-03-03 05:57:00,
2013-03-02 23:02:00,58.8,27.5,30.09,NNW,338,0.0,0.0,30,0.00,,---,0.00,VWS V14.01,2013-03-03 06:02:00,
2013-03-02 23:07:00,59.2,27.8,30.09,NNW,338,0.0,0.0,30,0.00,,---,0.00,VWS V14.01,2013-03-03 06:07:00,
2013-03-02 23:12:00,59.2,27.0,30.09,NNW,338,0.0,0.0,29,0.00,,---,0.00,VWS V14.01,2013-03-03 06:12:00,
2013-03-02 23:17:00,59.4,27.1,30.09,NNE,22,0.0,0.0,29,0.00,,---,0.00,VWS V14.01,2013-03-03 06:17:00,
2013-03-02 23:22:00,59.2,27.0,30.09,NNW,338,0.0,0.0,29,0.00,,---,0.00,VWS V14.01,2013-03-03 06:22:00,
2013-03-02 23:27:00,59.0,26.8,30.09,NW,315,0.0,0.0,29,0.00,,---,0.00,VWS V14.01,2013-03-03 06:27:00,
2013-03-02 23:32:00,58.6,26.5,30.09,NNW,338,0.0,0.0,29,0.00,,---,0.00,VWS V14.01,2013-03-03 06:32:00,
2013-03-02 23:37:00,58.5,26.3,30.09,NNW,338,0.0,0.0,29,0.00,,---,0.00,VWS V14.01,2013-03-03 06:37:00,
2013-03-02 23:42:00,58.1,26.0,30.09,NW,315,0.0,0.0,29,0.00,,---,0.00,VWS V14.01,2013-03-03 06:42:00,
2013-03-02 23:48:00,57.9,25.9,30.09,NNW,338,0.0,0.0,29,0.00,,---,0.00,VWS V14.01,2013-03-03 06:48:00,
2013-03-02 23:53:00,57.9,26.7,30.09,NNW,338,0.0,0.0,30,0.00,,---,0.00,VWS V14.01,2013-03-03 06:53:00,
2013-03-02 23:58:00,57.7,26.5,30.09,NW,315,0.0,0.0,30,0.00,,---,0.00,VWS V14.01,2013-03-03 06:58:00,